owner,sensor,date,latitude,longitude,vertical_datum,direction_of_sea_water_velocity,sea_water_speed,upward_sea_water_velocity,qcFlag 
TABS,ioos:station:wmo:42051:1,2017-09-01T00:00:00Z,29.6350,-93.6417,2.0,104.3090218,28.52493821,-99999.0,'11111222,11111222,99999999' 
TABS,ioos:station:wmo:42051:1,2017-09-01T00:30:00Z,29.6350,-93.6417,2.0,102.6936636,29.39853738,-99999.0,'11111222,11111222,99999999' 
TABS,ioos:station:wmo:42051:1,2017-09-01T01:00:00Z,29.6350,-93.6417,2.0,101.2716426,14.68321831,-99999.0,'11111222,11111222,99999999' 
TABS,ioos:station:wmo:42051:1,2017-09-01T01:30:00Z,29.6350,-93.6417,2.0,102.544413,23.84933542,-99999.0,'11111222,11111222,99999999' 
TABS,ioos:station:wmo:42051:1,2017-09-01T02:00:00Z,29.6350,-93.6417,2.0,97.97046842,25.89010815,-99999.0,'11111222,11111222,99999999' 
TABS,ioos:station:wmo:42051:1,2017-09-01T02:30:00Z,29.6350,-93.6417,2.0,94.65334071,21.57110336,-99999.0,'11111222,11111222,99999999' 
TABS,ioos:station:wmo:42051:1,2017-09-01T03:00:00Z,29.6350,-93.6417,2.0,95.38985463,19.37566773,-99999.0,'11111222,11111222,99999999' 
TABS,ioos:station:wmo:42051:1,2017-09-01T03:30:00Z,29.6350,-93.6417,2.0,97.79326561,24.77886398,-99999.0,'11111222,11111222,99999999' 
TABS,ioos:station:wmo:42051:1,2017-09-01T04:00:00Z,29.6350,-93.6417,2.0,91.54113182,30.8611633,-99999.0,'11111222,11111222,99999999' 
TABS,ioos:station:wmo:42051:1,2017-09-01T04:30:00Z,29.6350,-93.6417,2.0,96.1342663,20.58788236,-99999.0,'11111222,11111222,99999999' 
TABS,ioos:station:wmo:42051:1,2017-09-01T05:00:00Z,29.6350,-93.6417,2.0,99.01077539,21.07002848,-99999.0,'11111222,11111222,99999999' 
TABS,ioos:station:wmo:42051:1,2017-09-01T05:30:00Z,29.6350,-93.6417,2.0,113.1515282,20.80551129,-99999.0,'11111222,11111222,99999999' 
TABS,ioos:station:wmo:42051:1,2017-09-01T06:00:00Z,29.6350,-93.6417,2.0,115.0064134,16.6067125,-99999.0,'11111222,11111222,99999999' 
TABS,ioos:station:wmo:42051:1,2017-09-01T06:30:00Z,29.6350,-93.6417,2.0,119.7322689,11.33181362,-99999.0,'11111222,11111222,99999999' 
TABS,ioos:station:wmo:42051:1,2017-09-01T07:00:00Z,29.6350,-93.6417,2.0,115.8400532,11.31093718,-99999.0,'11111222,11111222,99999999' 
TABS,ioos:station:wmo:42051:1,2017-09-01T07:30:00Z,29.6350,-93.6417,2.0,115.5186096,9.795611262,-99999.0,'11133222,11111222,99999999' 
TABS,ioos:station:wmo:42051:1,2017-09-01T08:00:00Z,29.6350,-93.6417,2.0,85.77560666,5.294383817,-99999.0,'11133222,11111222,99999999' 
TABS,ioos:station:wmo:42051:1,2017-09-01T08:30:00Z,29.6350,-93.6417,2.0,56.37332134,5.02003984,-99999.0,'11133222,11111222,99999999' 
TABS,ioos:station:wmo:42051:1,2017-09-01T09:00:00Z,29.6350,-93.6417,2.0,20.21043241,1.939407126,-99999.0,'11133222,11111222,99999999' 
TABS,ioos:station:wmo:42051:1,2017-09-01T09:30:00Z,29.6350,-93.6417,2.0,124.9919384,0.488262225,-99999.0,'11133222,11111222,99999999' 
TABS,ioos:station:wmo:42051:1,2017-09-01T10:00:00Z,29.6350,-93.6417,2.0,148.3108828,4.60682103,-99999.0,'11133222,11111222,99999999' 
TABS,ioos:station:wmo:42051:1,2017-09-01T10:30:00Z,29.6350,-93.6417,2.0,152.1309995,9.43417723,-99999.0,'11133222,11111222,99999999' 
TABS,ioos:station:wmo:42051:1,2017-09-01T11:00:00Z,29.6350,-93.6417,2.0,186.6656878,9.906972292,-99999.0,'11133222,11111222,99999999' 
TABS,ioos:station:wmo:42051:1,2017-09-01T11:30:00Z,29.6350,-93.6417,2.0,188.3088413,15.84634027,-99999.0,'11111222,11111222,99999999' 
TABS,ioos:station:wmo:42051:1,2017-09-01T12:00:00Z,29.6350,-93.6417,2.0,197.6466014,15.17404363,-99999.0,'11111222,11111222,99999999' 
TABS,ioos:station:wmo:42051:1,2017-09-01T12:30:00Z,29.6350,-93.6417,2.0,214.6190014,13.85268566,-99999.0,'11111222,11111222,99999999' 
TABS,ioos:station:wmo:42051:1,2017-09-01T13:00:00Z,29.6350,-93.6417,2.0,220.0683557,16.45163214,-99999.0,'11111222,11111222,99999999' 
TABS,ioos:station:wmo:42051:1,2017-09-01T13:30:00Z,29.6350,-93.6417,2.0,232.4495083,15.16106856,-99999.0,'11111222,11111222,99999999' 
TABS,ioos:station:wmo:42051:1,2017-09-01T14:00:00Z,29.6350,-93.6417,2.0,234.8166907,13.51985947,-99999.0,'11111222,11111222,99999999' 
TABS,ioos:station:wmo:42051:1,2017-09-01T14:30:00Z,29.6350,-93.6417,2.0,244.4364195,13.81206719,-99999.0,'11111222,11111222,99999999' 
TABS,ioos:station:wmo:42051:1,2017-09-01T15:00:00Z,29.6350,-93.6417,2.0,247.1337411,13.79397332,-99999.0,'11111222,11111222,99999999' 
TABS,ioos:station:wmo:42051:1,2017-09-01T15:30:00Z,29.6350,-93.6417,2.0,264.2447152,14.16137352,-99999.0,'11111222,11111222,99999999' 
TABS,ioos:station:wmo:42051:1,2017-09-01T16:00:00Z,29.6350,-93.6417,2.0,271.4511901,13.03417815,-99999.0,'11111222,11111222,99999999' 
TABS,ioos:station:wmo:42051:1,2017-09-01T16:30:00Z,29.6350,-93.6417,2.0,274.22123,19.02159036,-99999.0,'11111222,11111222,99999999' 
TABS,ioos:station:wmo:42051:1,2017-09-01T17:00:00Z,29.6350,-93.6417,2.0,271.399304,16.38488328,-99999.0,'11111222,11111222,99999999' 
TABS,ioos:station:wmo:42051:1,2017-09-01T17:30:00Z,29.6350,-93.6417,2.0,280.0885671,13.24477255,-99999.0,'11111222,11111222,99999999' 
TABS,ioos:station:wmo:42051:1,2017-09-01T18:00:00Z,29.6350,-93.6417,2.0,283.3999034,11.34894268,-99999.0,'11111222,11111222,99999999' 
TABS,ioos:station:wmo:42051:1,2017-09-01T18:30:00Z,29.6350,-93.6417,2.0,288.7104537,10.53683064,-99999.0,'11111222,11111222,99999999' 
TABS,ioos:station:wmo:42051:1,2017-09-01T19:00:00Z,29.6350,-93.6417,2.0,302.2677402,9.271898403,-99999.0,'11133222,11111222,99999999' 
TABS,ioos:station:wmo:42051:1,2017-09-01T19:30:00Z,29.6350,-93.6417,2.0,310.5305423,9.617619248,-99999.0,'11133222,11111222,99999999' 
TABS,ioos:station:wmo:42051:1,2017-09-01T20:00:00Z,29.6350,-93.6417,2.0,321.0876621,9.201847641,-99999.0,'11133222,11111222,99999999' 
TABS,ioos:station:wmo:42051:1,2017-09-01T20:30:00Z,29.6350,-93.6417,2.0,322.7982082,7.244121755,-99999.0,'11133222,11111222,99999999' 
TABS,ioos:station:wmo:42051:1,2017-09-01T21:00:00Z,29.6350,-93.6417,2.0,331.9959351,8.902359238,-99999.0,'11133222,11111222,99999999' 
TABS,ioos:station:wmo:42051:1,2017-09-01T21:30:00Z,29.6350,-93.6417,2.0,343.9380088,7.409244226,-99999.0,'11133222,11111222,99999999' 
TABS,ioos:station:wmo:42051:1,2017-09-01T22:00:00Z,29.6350,-93.6417,2.0,350.3114466,11.23018255,-99999.0,'11111222,11111222,99999999' 
TABS,ioos:station:wmo:42051:1,2017-09-01T22:30:00Z,29.6350,-93.6417,2.0,2.161284893,11.66829893,-99999.0,'11111222,11111222,99999999' 
TABS,ioos:station:wmo:42051:1,2017-09-01T23:00:00Z,29.6350,-93.6417,2.0,354.0009127,9.280829704,-99999.0,'11133222,11111222,99999999' 
TABS,ioos:station:wmo:42051:1,2017-09-01T23:30:00Z,29.6350,-93.6417,2.0,2.224719716,10.04757185,-99999.0,'11111222,11111222,99999999' 
TABS,ioos:station:wmo:42051:1,2017-09-02T00:00:00Z,29.6350,-93.6417,2.0,16.89720606,8.601331292,-99999.0,'11133222,11111222,99999999' 
TABS,ioos:station:wmo:42051:1,2017-09-02T00:30:00Z,29.6350,-93.6417,2.0,36.69444845,9.790045965,-99999.0,'11133222,11111222,99999999' 
TABS,ioos:station:wmo:42051:1,2017-09-02T01:00:00Z,29.6350,-93.6417,2.0,355.1953501,3.462166951,-99999.0,'11133222,11111222,99999999' 
TABS,ioos:station:wmo:42051:1,2017-09-02T01:30:00Z,29.6350,-93.6417,2.0,35.75742111,16.37708765,-99999.0,'11111222,11111222,99999999' 
TABS,ioos:station:wmo:42051:1,2017-09-02T02:00:00Z,29.6350,-93.6417,2.0,39.31118583,20.47257922,-99999.0,'11111222,11111222,99999999' 
TABS,ioos:station:wmo:42051:1,2017-09-02T02:30:00Z,29.6350,-93.6417,2.0,65.9448343,8.782755832,-99999.0,'11133222,11111222,99999999' 
TABS,ioos:station:wmo:42051:1,2017-09-02T03:00:00Z,29.6350,-93.6417,2.0,70.24099586,12.45321244,-99999.0,'11111222,11111222,99999999' 
TABS,ioos:station:wmo:42051:1,2017-09-02T03:30:00Z,29.6350,-93.6417,2.0,71.72030195,15.17582617,-99999.0,'11111222,11111222,99999999' 
TABS,ioos:station:wmo:42051:1,2017-09-02T04:00:00Z,29.6350,-93.6417,2.0,75.55015935,20.15766107,-99999.0,'11111222,11111222,99999999' 
TABS,ioos:station:wmo:42051:1,2017-09-02T04:30:00Z,29.6350,-93.6417,2.0,86.65980151,19.2226559,-99999.0,'11111222,11111222,99999999' 
TABS,ioos:station:wmo:42051:1,2017-09-02T05:00:00Z,29.6350,-93.6417,2.0,96.60724491,17.29486918,-99999.0,'11111222,11111222,99999999' 
TABS,ioos:station:wmo:42051:1,2017-09-02T05:30:00Z,29.6350,-93.6417,2.0,89.85770978,24.1600745,-99999.0,'11111222,11111222,99999999' 
TABS,ioos:station:wmo:42051:1,2017-09-02T06:00:00Z,29.6350,-93.6417,2.0,98.88807575,9.514247211,-99999.0,'11133222,11111222,99999999' 
TABS,ioos:station:wmo:42051:1,2017-09-02T06:30:00Z,29.6350,-93.6417,2.0,120.5048551,6.638923105,-99999.0,'11133222,11111222,99999999' 
TABS,ioos:station:wmo:42051:1,2017-09-02T07:00:00Z,29.6350,-93.6417,2.0,103.1140862,4.671841179,-99999.0,'11133222,11111222,99999999' 
TABS,ioos:station:wmo:42051:1,2017-09-02T07:30:00Z,29.6350,-93.6417,2.0,118.3737241,6.375970514,-99999.0,'11133222,11111222,99999999' 
TABS,ioos:station:wmo:42051:1,2017-09-02T08:00:00Z,29.6350,-93.6417,2.0,145.3440415,4.607439636,-99999.0,'11133222,11111222,99999999' 
TABS,ioos:station:wmo:42051:1,2017-09-02T08:30:00Z,29.6350,-93.6417,2.0,128.0927482,2.998683044,-99999.0,'11133222,11111222,99999999' 
TABS,ioos:station:wmo:42051:1,2017-09-02T09:00:00Z,29.6350,-93.6417,2.0,141.3400717,2.048999756,-99999.0,'11133222,11111222,99999999' 
TABS,ioos:station:wmo:42051:1,2017-09-02T09:30:00Z,29.6350,-93.6417,2.0,200.7580653,1.326084462,-99999.0,'11133222,11111222,99999999' 
TABS,ioos:station:wmo:42051:1,2017-09-02T10:00:00Z,29.6350,-93.6417,2.0,179.1489267,4.04044552,-99999.0,'11133222,11111222,99999999' 
TABS,ioos:station:wmo:42051:1,2017-09-02T10:30:00Z,29.6350,-93.6417,2.0,146.9110823,1.850027027,-99999.0,'11133222,11111222,99999999' 
TABS,ioos:station:wmo:42051:1,2017-09-02T11:00:00Z,29.6350,-93.6417,2.0,3.911773124,1.172731853,-99999.0,'11133222,11111222,99999999' 
TABS,ioos:station:wmo:42051:1,2017-09-02T11:30:00Z,29.6350,-93.6417,2.0,201.5407151,0.408533964,-99999.0,'11133222,11111222,99999999' 
TABS,ioos:station:wmo:42051:1,2017-09-02T12:00:00Z,29.6350,-93.6417,2.0,212.6505155,1.223315168,-99999.0,'11133222,11111222,99999999' 
TABS,ioos:station:wmo:42051:1,2017-09-02T12:30:00Z,29.6350,-93.6417,2.0,7.414823411,1.472311108,-99999.0,'11133222,11111222,99999999' 
TABS,ioos:station:wmo:42051:1,2017-09-02T13:00:00Z,29.6350,-93.6417,2.0,249.3859984,2.329120005,-99999.0,'11133222,11111222,99999999' 
TABS,ioos:station:wmo:42051:1,2017-09-02T13:30:00Z,29.6350,-93.6417,2.0,216.869601,5.7,-99999.0,'11133222,11111222,99999999' 
TABS,ioos:station:wmo:42051:1,2017-09-02T14:00:00Z,29.6350,-93.6417,2.0,218.9571076,6.314190368,-99999.0,'11133222,11111222,99999999' 
TABS,ioos:station:wmo:42051:1,2017-09-02T14:30:00Z,29.6350,-93.6417,2.0,230.0095477,8.744964265,-99999.0,'11133222,11111222,99999999' 
TABS,ioos:station:wmo:42051:1,2017-09-02T15:00:00Z,29.6350,-93.6417,2.0,237.1576223,16.11580591,-99999.0,'11111222,11111222,99999999' 
TABS,ioos:station:wmo:42051:1,2017-09-02T15:30:00Z,29.6350,-93.6417,2.0,252.048355,20.60297309,-99999.0,'11111222,11111222,99999999' 
TABS,ioos:station:wmo:42051:1,2017-09-02T16:00:00Z,29.6350,-93.6417,2.0,265.6966774,19.72560012,-99999.0,'11111222,11111222,99999999' 
TABS,ioos:station:wmo:42051:1,2017-09-02T16:30:00Z,29.6350,-93.6417,2.0,264.9859051,17.50698432,-99999.0,'11111222,11111222,99999999' 
TABS,ioos:station:wmo:42051:1,2017-09-02T17:00:00Z,29.6350,-93.6417,2.0,283.2220564,17.40126432,-99999.0,'11111222,11111222,99999999' 
TABS,ioos:station:wmo:42051:1,2017-09-02T17:30:00Z,29.6350,-93.6417,2.0,289.8258451,14.59504711,-99999.0,'11111222,11111222,99999999' 
TABS,ioos:station:wmo:42051:1,2017-09-02T18:00:00Z,29.6350,-93.6417,2.0,293.0828332,9.718009055,-99999.0,'11133222,11111222,99999999' 
TABS,ioos:station:wmo:42051:1,2017-09-02T18:30:00Z,29.6350,-93.6417,2.0,308.9183597,9.009755824,-99999.0,'11133222,11111222,99999999' 
TABS,ioos:station:wmo:42051:1,2017-09-02T19:00:00Z,29.6350,-93.6417,2.0,314.9198443,10.0692105,-99999.0,'11111222,11111222,99999999' 
TABS,ioos:station:wmo:42051:1,2017-09-02T19:30:00Z,29.6350,-93.6417,2.0,333.6249414,8.103554776,-99999.0,'11133222,11111222,99999999' 
TABS,ioos:station:wmo:42051:1,2017-09-02T20:00:00Z,29.6350,-93.6417,2.0,326.1011907,7.602216782,-99999.0,'11133222,11111222,99999999' 
TABS,ioos:station:wmo:42051:1,2017-09-02T20:30:00Z,29.6350,-93.6417,2.0,325.7022896,9.671742346,-99999.0,'11133222,11111222,99999999' 
TABS,ioos:station:wmo:42051:1,2017-09-02T21:00:00Z,29.6350,-93.6417,2.0,337.6563679,11.17936045,-99999.0,'11111222,11111222,99999999' 
TABS,ioos:station:wmo:42051:1,2017-09-02T21:30:00Z,29.6350,-93.6417,2.0,348.4101726,13.63807904,-99999.0,'11111222,11111222,99999999' 
TABS,ioos:station:wmo:42051:1,2017-09-02T22:00:00Z,29.6350,-93.6417,2.0,14.76754697,11.02414169,-99999.0,'11111222,11111222,99999999' 
TABS,ioos:station:wmo:42051:1,2017-09-02T22:30:00Z,29.6350,-93.6417,2.0,26.469227,16.01921346,-99999.0,'11111222,11111222,99999999' 
TABS,ioos:station:wmo:42051:1,2017-09-02T23:00:00Z,29.6350,-93.6417,2.0,36.54713187,15.9702536,-99999.0,'11111222,11111222,99999999' 
TABS,ioos:station:wmo:42051:1,2017-09-02T23:30:00Z,29.6350,-93.6417,2.0,46.00080077,19.43425841,-99999.0,'11111222,11111222,99999999' 
TABS,ioos:station:wmo:42051:1,2017-09-03T00:00:00Z,29.6350,-93.6417,2.0,47.95467814,17.55958997,-99999.0,'11111222,11111222,99999999' 
TABS,ioos:station:wmo:42051:1,2017-09-03T00:30:00Z,29.6350,-93.6417,2.0,44.47785376,13.18808932,-99999.0,'11111222,11111222,99999999' 
TABS,ioos:station:wmo:42051:1,2017-09-03T01:00:00Z,29.6350,-93.6417,2.0,51.80311368,12.95347444,-99999.0,'11111222,11111222,99999999' 
TABS,ioos:station:wmo:42051:1,2017-09-03T01:30:00Z,29.6350,-93.6417,2.0,60.49986974,12.48917131,-99999.0,'11111222,11111222,99999999' 
TABS,ioos:station:wmo:42051:1,2017-09-03T02:00:00Z,29.6350,-93.6417,2.0,62.03472958,20.13062344,-99999.0,'11111222,11111222,99999999' 
TABS,ioos:station:wmo:42051:1,2017-09-03T02:30:00Z,29.6350,-93.6417,2.0,62.88390445,24.17748539,-99999.0,'11111222,11111222,99999999' 
TABS,ioos:station:wmo:42051:1,2017-09-03T03:00:00Z,29.6350,-93.6417,2.0,71.01159257,14.07595467,-99999.0,'11111222,11111222,99999999' 
TABS,ioos:station:wmo:42051:1,2017-09-03T03:30:00Z,29.6350,-93.6417,2.0,58.83573586,18.12579653,-99999.0,'11111222,11111222,99999999' 
TABS,ioos:station:wmo:42051:1,2017-09-03T04:00:00Z,29.6350,-93.6417,2.0,62.02059104,17.75531751,-99999.0,'11111222,11111222,99999999' 
TABS,ioos:station:wmo:42051:1,2017-09-03T04:30:00Z,29.6350,-93.6417,2.0,70.94938424,11.18245948,-99999.0,'11111222,11111222,99999999' 
TABS,ioos:station:wmo:42051:1,2017-09-03T05:00:00Z,29.6350,-93.6417,2.0,95.6466734,8.028960082,-99999.0,'11133222,11111222,99999999' 
TABS,ioos:station:wmo:42051:1,2017-09-03T05:30:00Z,29.6350,-93.6417,2.0,91.30194963,5.721477082,-99999.0,'11133222,11111222,99999999' 
TABS,ioos:station:wmo:42051:1,2017-09-03T06:00:00Z,29.6350,-93.6417,2.0,119.0755005,5.309048879,-99999.0,'11133222,11111222,99999999' 
TABS,ioos:station:wmo:42051:1,2017-09-03T06:30:00Z,29.6350,-93.6417,2.0,91.75938131,5.862763853,-99999.0,'11133222,11111222,99999999' 
TABS,ioos:station:wmo:42051:1,2017-09-03T07:00:00Z,29.6350,-93.6417,2.0,122.4531158,4.88249936,-99999.0,'11133222,11111222,99999999' 
TABS,ioos:station:wmo:42051:1,2017-09-03T07:30:00Z,29.6350,-93.6417,2.0,126.3155292,8.47639664,-99999.0,'11133222,11111222,99999999' 
TABS,ioos:station:wmo:42051:1,2017-09-03T08:00:00Z,29.6350,-93.6417,2.0,138.2518328,4.986060569,-99999.0,'11133222,11111222,99999999' 
TABS,ioos:station:wmo:42051:1,2017-09-03T08:30:00Z,29.6350,-93.6417,2.0,125.7538036,7.085344028,-99999.0,'11133222,11111222,99999999' 
TABS,ioos:station:wmo:42051:1,2017-09-03T09:00:00Z,29.6350,-93.6417,2.0,149.5065024,6.266769503,-99999.0,'11133222,11111222,99999999' 
TABS,ioos:station:wmo:42051:1,2017-09-03T09:30:00Z,29.6350,-93.6417,2.0,146.6892366,8.794964468,-99999.0,'11133222,11111222,99999999' 
TABS,ioos:station:wmo:42051:1,2017-09-03T10:00:00Z,29.6350,-93.6417,2.0,159.0416235,9.337772754,-99999.0,'11133222,11111222,99999999' 
TABS,ioos:station:wmo:42051:1,2017-09-03T10:30:00Z,29.6350,-93.6417,2.0,154.8800262,9.752358689,-99999.0,'11133222,11111222,99999999' 
TABS,ioos:station:wmo:42051:1,2017-09-03T11:00:00Z,29.6350,-93.6417,2.0,155.5104152,9.384226127,-99999.0,'11133222,11111222,99999999' 
TABS,ioos:station:wmo:42051:1,2017-09-03T11:30:00Z,29.6350,-93.6417,2.0,168.8618129,5.228479703,-99999.0,'11133222,11111222,99999999' 
TABS,ioos:station:wmo:42051:1,2017-09-03T12:00:00Z,29.6350,-93.6417,2.0,195.7083906,5.318646444,-99999.0,'11133222,11111222,99999999' 
TABS,ioos:station:wmo:42051:1,2017-09-03T12:30:00Z,29.6350,-93.6417,2.0,173.8331476,4.375317131,-99999.0,'11133222,11111222,99999999' 
TABS,ioos:station:wmo:42051:1,2017-09-03T13:00:00Z,29.6350,-93.6417,2.0,161.0786524,4.47162163,-99999.0,'11133222,11111222,99999999' 
TABS,ioos:station:wmo:42051:1,2017-09-03T13:30:00Z,29.6350,-93.6417,2.0,162.8616344,2.375478899,-99999.0,'11133222,11111222,99999999' 
TABS,ioos:station:wmo:42051:1,2017-09-03T14:00:00Z,29.6350,-93.6417,2.0,193.711251,2.995363083,-99999.0,'11133222,11111222,99999999' 
TABS,ioos:station:wmo:42051:1,2017-09-03T14:30:00Z,29.6350,-93.6417,2.0,241.7311324,1.203536456,-99999.0,'11133222,11111222,99999999' 
TABS,ioos:station:wmo:42051:1,2017-09-03T15:00:00Z,29.6350,-93.6417,2.0,220.6009892,4.978554007,-99999.0,'11133222,11111222,99999999' 
TABS,ioos:station:wmo:42051:1,2017-09-03T15:30:00Z,29.6350,-93.6417,2.0,249.9860591,9.642281888,-99999.0,'11133222,11111222,99999999' 
TABS,ioos:station:wmo:42051:1,2017-09-03T16:00:00Z,29.6350,-93.6417,2.0,269.4042021,12.51067544,-99999.0,'11111222,11111222,99999999' 
TABS,ioos:station:wmo:42051:1,2017-09-03T16:30:00Z,29.6350,-93.6417,2.0,261.9582039,8.220833291,-99999.0,'11133222,11111222,99999999' 
TABS,ioos:station:wmo:42051:1,2017-09-03T17:00:00Z,29.6350,-93.6417,2.0,257.4383631,5.747573401,-99999.0,'11133222,11111222,99999999' 
TABS,ioos:station:wmo:42051:1,2017-09-03T17:30:00Z,29.6350,-93.6417,2.0,283.7531141,11.27319387,-99999.0,'11111222,11111222,99999999' 
TABS,ioos:station:wmo:42051:1,2017-09-03T18:00:00Z,29.6350,-93.6417,2.0,301.1503884,11.07715216,-99999.0,'11111222,11111222,99999999' 
TABS,ioos:station:wmo:42051:1,2017-09-03T18:30:00Z,29.6350,-93.6417,2.0,285.896788,9.638594296,-99999.0,'11133222,11111222,99999999' 
TABS,ioos:station:wmo:42051:1,2017-09-03T19:00:00Z,29.6350,-93.6417,2.0,307.0079856,11.64603366,-99999.0,'11111222,11111222,99999999' 
TABS,ioos:station:wmo:42051:1,2017-09-03T19:30:00Z,29.6350,-93.6417,2.0,305.367478,12.8884328,-99999.0,'11111222,11111222,99999999' 
TABS,ioos:station:wmo:42051:1,2017-09-03T20:00:00Z,29.6350,-93.6417,2.0,328.6701991,15.28941137,-99999.0,'11111222,11111222,99999999' 
TABS,ioos:station:wmo:42051:1,2017-09-03T20:30:00Z,29.6350,-93.6417,2.0,333.1775216,14.91472427,-99999.0,'11111222,11111222,99999999' 
TABS,ioos:station:wmo:42051:1,2017-09-03T21:00:00Z,29.6350,-93.6417,2.0,350.9209994,12.29403107,-99999.0,'11111222,11111222,99999999' 
TABS,ioos:station:wmo:42051:1,2017-09-03T21:30:00Z,29.6350,-93.6417,2.0,350.1906364,17.90173455,-99999.0,'11111222,11111222,99999999' 
TABS,ioos:station:wmo:42051:1,2017-09-03T22:00:00Z,29.6350,-93.6417,2.0,349.9625877,13.42549813,-99999.0,'11111222,11111222,99999999' 
TABS,ioos:station:wmo:42051:1,2017-09-03T22:30:00Z,29.6350,-93.6417,2.0,3.663856848,10.64174798,-99999.0,'11111222,11111222,99999999' 
TABS,ioos:station:wmo:42051:1,2017-09-03T23:00:00Z,29.6350,-93.6417,2.0,11.88506603,7.817582747,-99999.0,'11133222,11111222,99999999' 
TABS,ioos:station:wmo:42051:1,2017-09-03T23:30:00Z,29.6350,-93.6417,2.0,7.699382983,9.778149109,-99999.0,'11133222,11111222,99999999' 
TABS,ioos:station:wmo:42051:1,2017-09-04T00:00:00Z,29.6350,-93.6417,2.0,345.3276287,6.987882369,-99999.0,'11133222,11111222,99999999' 
TABS,ioos:station:wmo:42051:1,2017-09-04T00:30:00Z,29.6350,-93.6417,2.0,3.001988746,8.21126665,-99999.0,'11133222,11111222,99999999' 
TABS,ioos:station:wmo:42051:1,2017-09-04T01:00:00Z,29.6350,-93.6417,2.0,5.135665938,7.038252624,-99999.0,'11133222,11111222,99999999' 
TABS,ioos:station:wmo:42051:1,2017-09-04T01:30:00Z,29.6350,-93.6417,2.0,14.44776739,4.729566576,-99999.0,'11133222,11111222,99999999' 
TABS,ioos:station:wmo:42051:1,2017-09-04T02:00:00Z,29.6350,-93.6417,2.0,15.23337892,9.172273437,-99999.0,'11133222,11111222,99999999' 
TABS,ioos:station:wmo:42051:1,2017-09-04T02:30:00Z,29.6350,-93.6417,2.0,9.088632955,12.34498279,-99999.0,'11111222,11111222,99999999' 
TABS,ioos:station:wmo:42051:1,2017-09-04T03:00:00Z,29.6350,-93.6417,2.0,11.74526492,10.07085399,-99999.0,'11111222,11111222,99999999' 
TABS,ioos:station:wmo:42051:1,2017-09-04T03:30:00Z,29.6350,-93.6417,2.0,12.65382874,10.45390358,-99999.0,'11111222,11111222,99999999' 
TABS,ioos:station:wmo:42051:1,2017-09-04T04:00:00Z,29.6350,-93.6417,2.0,8.738281891,10.7952999,-99999.0,'11111222,11111222,99999999' 
TABS,ioos:station:wmo:42051:1,2017-09-04T04:30:00Z,29.6350,-93.6417,2.0,334.3880757,4.302789793,-99999.0,'11133222,11111222,99999999' 
TABS,ioos:station:wmo:42051:1,2017-09-04T05:00:00Z,29.6350,-93.6417,2.0,0.852278344,14.12156153,-99999.0,'11111222,11111222,99999999' 
TABS,ioos:station:wmo:42051:1,2017-09-04T05:30:00Z,29.6350,-93.6417,2.0,18.46816499,16.44700885,-99999.0,'11111222,11111222,99999999' 
TABS,ioos:station:wmo:42051:1,2017-09-04T06:00:00Z,29.6350,-93.6417,2.0,11.68418503,14.41876555,-99999.0,'11111222,11111222,99999999' 
TABS,ioos:station:wmo:42051:1,2017-09-04T06:30:00Z,29.6350,-93.6417,2.0,14.15513763,9.364320584,-99999.0,'11133222,11111222,99999999' 
TABS,ioos:station:wmo:42051:1,2017-09-04T07:00:00Z,29.6350,-93.6417,2.0,11.56031422,7.185763703,-99999.0,'11133222,11111222,99999999' 
TABS,ioos:station:wmo:42051:1,2017-09-04T07:30:00Z,29.6350,-93.6417,2.0,30.14006899,10.97361381,-99999.0,'11111222,11111222,99999999' 
TABS,ioos:station:wmo:42051:1,2017-09-04T08:00:00Z,29.6350,-93.6417,2.0,38.33652383,10.23735317,-99999.0,'11111222,11111222,99999999' 
TABS,ioos:station:wmo:42051:1,2017-09-04T08:30:00Z,29.6350,-93.6417,2.0,71.12154884,9.395408453,-99999.0,'11133222,11111222,99999999' 
TABS,ioos:station:wmo:42051:1,2017-09-04T09:00:00Z,29.6350,-93.6417,2.0,82.32637865,9.585843729,-99999.0,'11133222,11111222,99999999' 
TABS,ioos:station:wmo:42051:1,2017-09-04T09:30:00Z,29.6350,-93.6417,2.0,108.3702623,8.40850165,-99999.0,'11133222,11111222,99999999' 
TABS,ioos:station:wmo:42051:1,2017-09-04T10:00:00Z,29.6350,-93.6417,2.0,97.15939599,8.264435855,-99999.0,'11133222,11111222,99999999' 
TABS,ioos:station:wmo:42051:1,2017-09-04T10:30:00Z,29.6350,-93.6417,2.0,109.7926158,6.939985591,-99999.0,'11133222,11111222,99999999' 
TABS,ioos:station:wmo:42051:1,2017-09-04T11:00:00Z,29.6350,-93.6417,2.0,116.1584378,8.82374637,-99999.0,'11133222,11111222,99999999' 
TABS,ioos:station:wmo:42051:1,2017-09-04T11:30:00Z,29.6350,-93.6417,2.0,93.3154904,7.262155327,-99999.0,'11133222,11111222,99999999' 
TABS,ioos:station:wmo:42051:1,2017-09-04T12:00:00Z,29.6350,-93.6417,2.0,132.7560684,8.307803561,-99999.0,'11133222,11111222,99999999' 
TABS,ioos:station:wmo:42051:1,2017-09-04T12:30:00Z,29.6350,-93.6417,2.0,136.9148413,6.983043749,-99999.0,'11133222,11111222,99999999' 
TABS,ioos:station:wmo:42051:1,2017-09-04T13:00:00Z,29.6350,-93.6417,2.0,170.8324947,7.343800106,-99999.0,'11133222,11111222,99999999' 
TABS,ioos:station:wmo:42051:1,2017-09-04T13:30:00Z,29.6350,-93.6417,2.0,160.1713463,7.281716831,-99999.0,'11133222,11111222,99999999' 
TABS,ioos:station:wmo:42051:1,2017-09-04T14:00:00Z,29.6350,-93.6417,2.0,196.1865905,7.497206146,-99999.0,'11133222,11111222,99999999' 
TABS,ioos:station:wmo:42051:1,2017-09-04T14:30:00Z,29.6350,-93.6417,2.0,190.9730157,5.673737745,-99999.0,'11133222,11111222,99999999' 
TABS,ioos:station:wmo:42051:1,2017-09-04T15:00:00Z,29.6350,-93.6417,2.0,214.4478995,4.401931394,-99999.0,'11133222,11111222,99999999' 
TABS,ioos:station:wmo:42051:1,2017-09-04T15:30:00Z,29.6350,-93.6417,2.0,246.9741409,3.47701021,-99999.0,'11133222,11111222,99999999' 
TABS,ioos:station:wmo:42051:1,2017-09-04T16:00:00Z,29.6350,-93.6417,2.0,250.3353418,3.684901627,-99999.0,'11133222,11111222,99999999' 